Regional Weather Roundup
Issued by NWS

Home | Current Version | Previous Version | Text Only | Print | Product List | Glossary On
Versions: 1 2 3 4 5 6 7 8 9 10 11 12 13 14 15 16 17 18 19 20 21 22 23 24 25 26 27 28 29 30 31 32 33 34 35 36 37 38 39 40 41 42 43 44 45 46 47 48 49 50
000
ASUS44 KFWD 260315
RWRTX
NORTH TEXAS HOURLY WEATHER ROUNDUP
NATIONAL WEATHER SERVICE FORT WORTH TX
900 PM CST SAT FEB 25 2017

NOTE: "FAIR" INDICATES FEW OR NO CLOUDS BELOW 12,000 FEET WITH NO
SIGNIFICANT WEATHER AND/OR OBSTRUCTIONS TO VISIBILITY.

TXZ118-119-260400-
DALLAS/FORT WORTH METROPLEX

CITY           SKY/WX    TMP DP  RH WIND       PRES   REMARKS
DFW AIRPORT    PTCLDY    46  21  37 SE5       30.07R
DALLAS LOVE    PTCLDY    49  22  34 E6        30.09R
FTW MEACHAM    CLEAR     48  20  32 E8        30.07S
DAL-EXECUTIVE  CLEAR     44  24  45 SE3       30.08S
FTW-ALLIANCE   PTCLDY    36  25  64 CALM      30.07S
FTW-NAS-JRB    CLEAR     48  22  35 SE6       30.08S
FTW-SPINKS     CLEAR     41  28  58 SE3       30.10S
ARLINGTON      CLEAR     43  25  49 SE3       30.09R
GRAND PRAIRIE  CLEAR     46  23  39 CALM      30.10S
ADDISON        CLEAR     46  21  36 E6        30.09S
MESQUITE       CLEAR     41  26  56 CALM      30.09S
LANCASTER      CLEAR     40  27  58 CALM      30.10S
$$

TXZ091>094-102>105-117-120-121-131>134-260400-
NORTH CENTRAL TEXAS

CITY           SKY/WX    TMP DP  RH WIND       PRES   REMARKS
SHRMAN/DENISON CLEAR     41  22  46 E6        30.09S WCI  37
GAINESVILLE    CLEAR     42  19  39 CALM      30.10S
BOWIE          CLEAR     40  24  54 E3        30.06S
BRIDGEPORT     CLEAR     43  20  41 SE5       30.08F
DECATUR        CLEAR     41  22  47 SE5       30.07S WCI  38
DENTON         CLEAR     40  21  46 CALM      30.08S
MCKINNEY       CLEAR     42  23  46 CALM      30.09R
BONHAM         CLEAR     39  25  56 SE3       30.10R
GREENVILLE     CLEAR     39  30  70 CALM      30.10R
ROCKWALL       CLEAR     44  25  48 SE3       30.10R
TERRELL        CLEAR     43  25  49 CALM      30.10R
WAXAHACHIE     CLEAR     42  28  57 CALM      30.10S
CLEBURNE       CLEAR     45  25  45 E8        30.09S
GRANBURY       CLEAR     46  28  48 SE5       30.08F
$$

TXZ083>090-098>101-113>116-127>130-139>142-154-155-260400-
WESTERN NORTH TEXAS

CITY           SKY/WX    TMP DP  RH WIND       PRES   REMARKS
WICHITA FALLS  CLEAR     39  23  52 E6        30.05S WCI  35
WF-KICKAPOO    CLEAR     40  23  50 E5        30.06S WCI  37
VERNON         CLEAR     39  21  47 E7        30.03F WCI  34
ABILENE        CLEAR     42  27  55 SE9       29.99F WCI  37
ABILENE-DYESS  CLEAR     44  27  50 S7        29.98F
GRAHAM         CLEAR     43  25  49 SE5       30.02F
BRECKENRIDGE   CLEAR     46  24  42 SE9       30.03S
CISCO          PTCLDY    43  25  49 SE9       30.02F WCI  37
RANGER         CLEAR     41  27  56 SE5       30.04F WCI  38
MINERAL WELLS  CLEAR     40  24  53 SE8       30.04F WCI  34
STEPHENVILLE   CLEAR     45  27  49 SE7       30.08F
COMANCHE       CLEAR     44  30  57 SE8       30.04F WCI  39
BROWNWOOD      PTCLDY    46  28  49 SE8       30.03F
COLEMAN        CLEAR     46  29  51 SE7       30.01F
$$

TXZ143>147-156>162-174-175-260400-
CENTRAL TEXAS

CITY           SKY/WX    TMP DP  RH WIND       PRES   REMARKS
WACO           CLEAR     45  30  55 E3        30.10R
WACO-TSTC      CLEAR     45  30  57 CALM      30.10S
WACO-MCGREGOR  CLEAR     45  31  58 SE3       30.10S
HILLSBORO      PTCLDY    44  31  60 E6        30.09F
CORSICANA      CLEAR     45  32  60 CALM      30.11S
MEXIA          MOCLDY    48  32  52 CALM      30.09S
HEARNE         CLEAR     48  33  57 CALM      30.11S
CAMERON        CLEAR     51  33  51 CALM      30.11R
TEMPLE         CLEAR     47  29  49 E3        30.10S
KILLEEN        CLEAR     48  30  49 E7        30.07F
KILLEEN-SKYLRK CLEAR     48  31  51 E5        30.09F
FORT HOOD      CLEAR     47  31  53 E6        30.06S
GATESVILLE     CLEAR     43  32  65 CALM      30.10F
HAMILTON       CLEAR     46  29  51 SE10      30.07S
LAMPASAS       CLEAR     45  31  58 CALM      30.07S
$$

TXZ095>097-106>112-122>126-135>138-148>153-164>167-260400-
EAST TEXAS

CITY           SKY/WX    TMP DP  RH WIND       PRES   REMARKS
PARIS          CLEAR     43  21  42 E5        30.10F
SULPHUR SPRNGS CLEAR     43  27  54 E3        30.12R
MOUNT PLEASANT CLEAR     41  30  64 NE3       30.12S
GILMER         CLEAR     41  34  77 CALM      30.10S
MINEOLA        CLEAR     39  32  75 CALM      30.10R
TYLER          CLEAR     45  32  60 SE5       30.09S
LONGVIEW       CLEAR     42  34  73 CALM      30.09F
MARSHALL       CLEAR     38  34  87 CALM      30.13S
PALESTINE      PTCLDY    44  37  74 CALM      30.11S
JACKSONVILLE   PTCLDY    47  29  49 CALM      30.11F
HENDERSON      CLEAR     40  35  81 CALM      30.11S
CENTER         CLOUDY    48  39  69 CALM      30.13R
NACOGDOCHES    CLEAR     45  34  65 CALM      30.10R
LUFKIN         PTCLDY    46  34  62 CALM      30.12R
$$

SUPPLEMENTAL OBSERVATIONS (CENTRAL)

CITY           SKY/WX    TMP DP  RH WIND       PRES   REMARKS
DENISON DAM      N/A     43  21  42 SE2         N/A
CADDO GRASSLND   N/A     36  25  64 CALM        N/A
PAT MAYSE LAKE   N/A     45  18  33 CALM        N/A
GREENVILLE       N/A     45  23  42 E1          N/A
CEDAR HILL       N/A     45  23  42 SE5         N/A
ATHENS           N/A     43  32  65 NW1         N/A
LAKE LIMESTONE   N/A     52  32  46 E2          N/A
MCGREGOR         N/A     45  30  57 CALM        N/A
TEMPLE           N/A     50  28  43 NE5         N/A
$$

SUPPLEMENTAL OBSERVATIONS (WEST)

CITY           SKY/WX    TMP DP  RH WIND       PRES   REMARKS
MILLERS CREEK    N/A     41  27  56 E8          N/A  WCI  36
POSSUM KINGDOM   N/A     43  25  49 SE6         N/A  WCI  39
LBJ GRASSLAND    N/A     43  21  42 E5          N/A
GRANBURY         N/A     46  27  46 SE7         N/A
COMANCHE         N/A     45  28  53 SE10        N/A  WCI  39
HAMBY            N/A     43  27  52 SE5         N/A
IVIE RESERVOIR   N/A     46  30  53 SE6         N/A
COLORADO BEND    N/A     46  28  49 S7          N/A
$$

SUPPLEMENTAL OBSERVATIONS (EAST)

CITY           SKY/WX    TMP DP  RH WIND       PRES   REMARKS
CLARKSVILLE      N/A     39  21  48 CALM        N/A
TEXARKANA        N/A     36  32  87 CALM        N/A
LINDEN           N/A     39  32  75 CALM        N/A
CADDO LAKE       N/A     34  32  93 CALM        N/A
GILMER           N/A     39  34  81 CALM        N/A
HENDERSON        N/A     39  32  75 CALM        N/A
LUFKIN           N/A     48  37  66 MISG        N/A
N SABINE NF      N/A     43  36  75 MISG        N/A
S SABINE NF      N/A     45  36  70 CALM        N/A
$$

SUPPLEMENTAL OBSERVATIONS ARE A COLLECTION OF AUTOMATED INSTRUMENTS
THAT ARE MAINTAINED BY A VARIETY OF FEDERAL AND STATE AGENCIES.
CERTAIN ELEMENTS...SUCH AS HUMIDITY VALUES AND SUSTAINED WIND
SPEEDS...MAY BE APPROXIMATED.





USA.gov is the U.S. government's official web portal to all federal, state and local government web resources and services.